SM2NLD Weather Reports


Display with metric or nautical units.
time (UTC)temp
F
wind
direction
speed
MPH
gust
MPH
rain 1hr
in
rain 24hr
in
rain mn
in
humidity
%
barometer
mb
20260506170003 36 227 7.0 12.0 0.00 0.00 0.00 11 998.9
20260506165939 36 224 4.0 12.0 0.00 0.00 0.00 11 999.1
20260506165439 36 266 4.0 12.0 0.00 0.00 0.00 11 999.2
20260506165403 36 266 4.0 12.0 0.00 0.00 0.00 11 999.2
20260506164939 37 305 6.0 11.0 0.00 0.00 0.00 11 999.0
20260506164721 38 306 4.0 11.0 0.00 0.00 0.00 11 999.0
20260506164503 38 304 4.0 11.0 0.00 0.00 0.00 11 999.0
20260506164439 38 306 1.0 11.0 0.00 0.00 0.00 11 999.0
20260506163939 38 276 4.0 11.0 0.00 0.00 0.00 11 999.0
20260506163603 38 285 4.0 9.0 0.00 0.00 0.00 11 999.0
20260506163439 38 284 4.0 9.0 0.00 0.00 0.00 11 998.9
20260506162939 38 294 2.0 8.0 0.00 0.00 0.00 11 998.9
20260506162721 38 297 2.0 8.0 0.00 0.00 0.00 11 998.7
20260506162703 38 296 2.0 8.0 0.00 0.00 0.00 11 998.7
20260506162439 38 275 2.0 8.0 0.00 0.00 0.00 11 998.8
20260506161939 39 265 3.0 8.0 0.00 0.00 0.00 11 998.7
20260506161803 39 261 3.0 8.0 0.00 0.00 0.00 11 998.7
20260506161439 38 266 4.0 8.0 0.00 0.00 0.00 11 998.8
20260506160939 38 229 3.0 8.0 0.00 0.00 0.00 11 998.8
20260506160903 38 229 3.0 8.0 0.00 0.00 0.00 11 998.8
20260506160721 38 237 4.0 8.0 0.00 0.00 0.00 11 998.8
20260506160439 37 229 2.0 10.0 0.00 0.00 0.00 11 998.8
20260506160003 37 242 3.0 10.0 0.00 0.00 0.00 11 998.8
20260506155939 37 247 3.0 10.0 0.00 0.00 0.00 11 998.8
20260506155439 37 251 1.0 15.0 0.00 0.00 0.00 11 998.7
20260506155403 37 251 1.0 15.0 0.00 0.00 0.00 11 998.7
20260506154939 38 269 4.0 15.0 0.00 0.00 0.00 11 998.8
20260506154721 38 271 7.0 15.0 0.00 0.00 0.00 11 998.7
20260506154503 38 273 4.0 12.0 0.00 0.00 0.00 11 998.8
20260506154439 39 275 5.0 12.0 0.00 0.00 0.00 11 998.5
20260506153939 39 297 3.0 11.0 0.00 0.00 0.00 11 998.5
20260506153603 39 321 4.0 7.0 0.00 0.00 0.00 11 998.4
20260506153439 39 328 2.0 6.0 0.00 0.00 0.00 11 998.3
20260506152939 39 324 2.0 8.0 0.00 0.00 0.00 11 998.4
20260506152721 39 329 2.0 8.0 0.00 0.00 0.00 11 998.4
20260506152703 39 331 2.0 8.0 0.00 0.00 0.00 11 998.4
20260506152439 39 341 2.0 8.0 0.00 0.00 0.00 11 998.4
20260506151940 40 317 3.0 6.0 0.00 0.00 0.00 11 998.3
20260506151803 40 323 3.0 6.0 0.00 0.00 0.00 11 998.3
20260506151440 40 285 4.0 6.0 0.00 0.00 0.00 11 998.3
20260506150940 40 238 2.0 7.0 0.00 0.00 0.00 11 998.4
20260506150903 40 238 2.0 7.0 0.00 0.00 0.00 11 998.4
20260506150722 40 239 2.0 7.0 0.00 0.00 0.00 11 998.4
20260506150440 39 240 2.0 7.0 0.00 0.00 0.00 11 998.4
20260506150003 39 295 1.0 7.0 0.00 0.00 0.00 11 998.3
20260506145940 39 296 2.0 7.0 0.00 0.00 0.00 11 998.4
20260506145440 39 290 2.0 7.0 0.00 0.00 0.00 11 998.4
20260506145403 39 290 2.0 7.0 0.00 0.00 0.00 11 998.4
20260506144824 39 282 1.0 7.0 0.00 0.00 0.00 11 998.3
20260506144722 38 292 2.0 7.0 0.00 0.00 0.00 11 998.4
20260506144503 38 300 4.0 7.0 0.00 0.00 0.00 11 998.4
20260506144324 38 308 2.0 8.0 0.00 0.00 0.00 11 998.3
20260506143824 38 321 4.0 9.0 0.00 0.00 0.00 11 998.3
20260506143603 38 315 2.0 9.0 0.00 0.00 0.00 11 998.4
20260506143324 38 309 3.0 11.0 0.00 0.00 0.00 11 998.4
20260506142824 37 325 4.0 14.0 0.00 0.00 0.00 11 998.5
20260506142722 37 323 4.0 15.0 0.00 0.00 0.00 11 998.4
20260506142703 37 323 4.0 15.0 0.00 0.00 0.00 11 998.4
20260506142324 38 326 6.0 15.0 0.00 0.00 0.00 11 998.4
20260506141824 39 331 6.0 15.0 0.00 0.00 0.00 11 998.3
20260506141803 39 331 6.0 15.0 0.00 0.00 0.00 11 998.3
20260506141324 41 336 3.0 14.0 0.00 0.00 0.00 11 998.0
20260506140903 42 322 6.0 11.0 0.00 0.00 0.00 11 998.0
20260506140824 42 317 4.0 9.0 0.00 0.00 0.00 11 998.0
20260506140722 42 311 6.0 9.0 0.00 0.00 0.00 11 998.0
20260506140324 40 323 6.0 9.0 0.00 0.00 0.00 11 997.9
20260506140003 40 336 6.0 11.0 0.00 0.00 0.00 11 998.0
20260506135824 40 345 2.0 11.0 0.00 0.00 0.00 11 998.1
20260506135403 40 353 4.0 11.0 0.00 0.00 0.00 11 998.0
20260506135324 41 353 5.0 11.0 0.00 0.00 0.00 11 998.0
20260506134824 41 354 6.0 13.0 0.00 0.00 0.00 11 998.0
20260506134722 41 354 5.0 13.0 0.00 0.00 0.00 11 997.9
20260506134503 40 348 5.0 13.0 0.00 0.00 0.00 11 997.9
20260506134324 40 346 5.0 13.0 0.00 0.00 0.00 11 997.9
20260506133823 40 325 7.0 13.0 0.00 0.00 0.00 11 997.9
20260506133603 41 311 8.0 11.0 0.00 0.00 0.00 11 997.9
20260506133323 41 289 6.0 11.0 0.00 0.00 0.00 11 997.9
20260506132823 41 290 2.0 13.0 0.00 0.00 0.00 11 997.9
20260506132721 41 289 4.0 13.0 0.00 0.00 0.00 11 997.7
20260506132703 41 290 4.0 13.0 0.00 0.00 0.00 11 997.7
20260506132323 41 287 3.0 13.0 0.00 0.00 0.00 11 997.8
20260506131823 40 287 1.0 7.0 0.00 0.00 0.00 11 997.6
20260506131803 40 287 1.0 7.0 0.00 0.00 0.00 11 997.6
20260506131426 40 278 2.0 11.0 0.00 0.00 0.00 11 997.8
20260506130926 41 246 4.0 11.0 0.00 0.00 0.00 11 997.8
20260506130903 41 246 4.0 11.0 0.00 0.00 0.00 11 997.8
20260506130720 41 243 4.0 11.0 0.00 0.00 0.00 11 997.8
20260506130426 41 221 2.0 4.0 0.00 0.00 0.00 11 997.7
20260506130003 41 211 2.0 4.0 0.00 0.00 0.00 11 997.7
20260506125926 41 209 0.0 4.0 0.00 0.00 0.00 11 997.9
20260506125426 39 276 2.0 8.0 0.00 0.00 0.00 11 997.7
20260506125403 39 276 2.0 8.0 0.00 0.00 0.00 11 997.7
20260506124926 39 283 2.0 8.0 0.00 0.00 0.00 11 997.8
20260506124720 40 268 4.0 8.0 0.00 0.00 0.00 11 997.8
20260506124504 41 261 4.0 8.0 0.00 0.00 0.00 11 997.9
20260506124426 41 255 4.0 8.0 0.00 0.00 0.00 11 997.8
20260506123926 41 274 3.0 9.0 0.00 0.00 0.00 11 997.7
20260506123603 42 283 3.0 9.0 0.00 0.00 0.00 11 997.6
20260506123426 42 268 4.0 9.0 0.00 0.00 0.00 11 997.6
20260506122926 41 221 2.0 9.0 0.00 0.00 0.00 11 997.5
20260506122720 41 217 2.0 9.0 0.00 0.00 0.00 11 997.4
20260506122703 41 217 2.0 9.0 0.00 0.00 0.00 11 997.4
20260506122426 42 205 3.0 9.0 0.00 0.00 0.00 11 997.5
20260506121926 41 206 4.0 11.0 0.00 0.00 0.00 11 997.4
20260506121803 40 207 3.0 11.0 0.00 0.00 0.00 11 997.4
20260506121426 40 236 2.0 12.0 0.00 0.00 0.00 11 997.4
20260506120926 40 301 4.0 15.0 0.00 0.00 0.00 11 997.5
20260506120903 40 301 4.0 15.0 0.00 0.00 0.00 11 997.5
20260506120720 41 314 4.0 15.0 0.00 0.00 0.00 11 997.4
20260506120426 42 317 8.0 15.0 0.00 0.00 0.00 11 997.4
20260506120003 42 292 8.0 15.0 0.00 0.00 0.00 11 997.3
20260506115925 42 282 9.0 15.0 0.00 0.00 0.00 11 997.3
20260506115426 43 237 2.0 11.0 0.00 0.00 0.00 11 997.0
20260506115403 43 237 2.0 11.0 0.00 0.00 0.00 11 997.0
20260506114926 42 223 2.0 11.0 0.00 0.00 0.00 11 997.0
20260506114721 42 215 3.0 11.0 0.00 0.00 0.00 11 997.1
20260506114503 42 215 7.0 11.0 0.00 0.00 0.00 11 996.9
20260506114427 43 209 6.0 11.0 0.00 0.00 0.00 11 997.1
20260506113927 43 200 2.0 7.0 0.00 0.00 0.00 11 997.0
20260506113603 43 218 1.0 8.0 0.00 0.00 0.00 11 996.9
20260506113427 43 213 3.0 8.0 0.00 0.00 0.00 11 997.0
20260506112926 42 214 2.0 9.0 0.00 0.00 0.00 11 997.0
20260506112721 41 219 2.0 9.0 0.00 0.00 0.00 11 997.0
20260506112703 41 219 2.0 9.0 0.00 0.00 0.00 11 997.0
20260506112426 40 244 2.0 9.0 0.00 0.00 0.00 11 997.0
20260506111926 39 313 6.0 9.0 0.00 0.00 0.00 11 997.0
20260506111803 39 319 3.0 8.0 0.00 0.00 0.00 11 996.9
20260506111426 38 345 3.0 14.0 0.00 0.00 0.00 11 997.0
20260506110926 39 357 4.0 14.0 0.00 0.00 0.00 11 997.0
20260506110904 39 357 4.0 14.0 0.00 0.00 0.00 11 997.0
20260506110721 39 2 7.0 14.0 0.00 0.00 0.00 11 997.0
20260506110425 40 357 7.0 10.0 0.00 0.00 0.00 11 997.0
20260506110003 40 340 4.0 8.0 0.00 0.00 0.00 11 996.9
20260506105926 40 335 5.0 8.0 0.00 0.00 0.00 11 996.8
20260506105425 39 350 2.0 8.0 0.00 0.00 0.00 11 996.8
20260506105403 39 350 2.0 8.0 0.00 0.00 0.00 11 996.8
20260506104925 40 347 4.0 8.0 0.00 0.00 0.00 11 996.9
20260506104721 40 346 4.0 8.0 0.00 0.00 0.00 11 996.8
20260506104503 40 357 4.0 5.0 0.00 0.00 0.00 11 996.8
20260506104425 40 10 3.0 5.0 0.00 0.00 0.00 11 996.8
20260506103925 40 31 1.0 10.0 0.00 0.00 0.00 11 996.7
20260506103603 39 347 2.0 10.0 0.00 0.00 0.00 11 996.7
20260506103425 39 338 2.0 11.0 0.00 0.00 0.00 11 996.7
20260506102925 41 326 5.0 11.0 0.00 0.00 0.00 11 997.0
20260506102721 41 327 4.0 13.0 0.00 0.00 0.00 11 996.7
20260506102704 41 327 4.0 13.0 0.00 0.00 0.00 11 996.7
20260506102425 41 324 5.0 13.0 0.00 0.00 0.00 11 996.6
20260506101925 41 333 5.0 13.0 0.00 0.00 0.00 11 996.7
20260506101804 41 335 7.0 13.0 0.00 0.00 0.00 11 996.6
20260506101425 40 338 3.0 9.0 0.00 0.00 0.00 11 996.5
20260506100925 40 349 2.0 9.0 0.00 0.00 0.00 11 996.5
20260506100903 40 349 2.0 9.0 0.00 0.00 0.00 11 996.5
20260506100721 40 350 4.0 10.0 0.00 0.00 0.00 11 996.4
20260506100425 41 343 5.0 15.0 0.00 0.00 0.00 11 996.4
20260506100003 41 327 5.0 15.0 0.00 0.00 0.00 11 996.5
20260506095925 41 328 7.0 15.0 0.00 0.00 0.00 11 996.4
20260506095425 43 316 7.0 11.0 0.00 0.00 0.00 11 996.5
20260506095404 43 316 7.0 11.0 0.00 0.00 0.00 11 996.5
20260506094925 41 320 2.0 8.0 0.00 0.00 0.00 11 996.1
20260506094721 40 334 5.0 8.0 0.00 0.00 0.00 11 996.2
20260506094503 40 341 4.0 9.0 0.00 0.00 0.00 11 996.2
20260506094425 40 339 4.0 10.0 0.00 0.00 0.00 11 996.3
20260506093925 40 347 2.0 15.0 0.00 0.00 0.00 11 996.4
20260506093603 40 340 4.0 15.0 0.00 0.00 0.00 11 996.2
20260506093425 40 349 6.0 15.0 0.00 0.00 0.00 11 996.2
20260506092925 41 343 4.0 11.0 0.00 0.00 0.00 11 996.2
20260506092721 42 338 4.0 11.0 0.00 0.00 0.00 11 996.2
20260506092703 42 338 4.0 11.0 0.00 0.00 0.00 11 996.2
20260506092425 42 327 4.0 11.0 0.00 0.00 0.00 11 996.2
20260506091925 41 330 4.0 9.0 0.00 0.00 0.00 11 996.3
20260506091804 40 326 4.0 9.0 0.00 0.00 0.00 11 996.1
20260506091425 40 333 4.0 8.0 0.00 0.00 0.00 11 996.1
20260506090925 39 323 4.0 8.0 0.00 0.00 0.00 11 996.2
20260506090903 39 323 4.0 8.0 0.00 0.00 0.00 11 996.2
20260506090721 39 306 3.0 6.0 0.00 0.00 0.00 11 996.2
20260506090425 39 289 2.0 6.0 0.00 0.00 0.00 11 996.1
20260506090004 39 279 2.0 6.0 0.00 0.00 0.00 11 996.1
20260506085926 39 276 2.0 6.0 0.00 0.00 0.00 11 996.0
20260506085426 39 310 2.0 8.0 0.00 0.00 0.00 11 996.0
20260506085403 39 310 2.0 8.0 0.00 0.00 0.00 11 996.0
20260506084927 39 351 2.0 12.0 0.00 0.00 0.00 11 996.1
20260506084720 39 352 4.0 12.0 0.00 0.00 0.00 11 996.0
20260506084503 39 359 4.0 12.0 0.00 0.00 0.00 11 995.9
20260506084426 39 359 5.0 12.0 0.00 0.00 0.00 11 996.0
20260506083926 39 331 8.0 12.0 0.00 0.00 0.00 11 996.0
20260506083603 38 326 4.0 8.0 0.00 0.00 0.00 11 996.0
20260506083426 38 322 3.0 8.0 0.00 0.00 0.00 11 996.1
20260506083246 38 326 5.0 8.0 0.00 0.00 0.00 11 996.0
20260506082724 38 330 2.0 10.0 0.00 0.00 0.00 11 995.9
20260506082703 38 330 2.0 10.0 0.00 0.00 0.00 11 995.9
20260506082246 38 325 4.0 10.0 0.00 0.00 0.00 11 996.0
20260506081803 39 331 4.0 8.0 0.00 0.00 0.00 11 995.9
20260506080903 39 335 4.0 9.0 0.00 0.00 0.00 11 995.8
20260506080726 38 333 3.0 9.0 0.00 0.00 0.00 11 995.6
20260506080246 38 336 4.0 8.0 0.00 0.00 0.00 11 995.6
20260506073249 38 289 4.0 7.0 0.00 0.00 0.00 11 995.5
20260506072722 38 269 2.0 7.0 0.00 0.00 0.00 11 995.4
20260506072703 38 269 2.0 7.0 0.00 0.00 0.00 11 995.4
20260506072246 38 249 3.0 7.0 0.00 0.00 0.00 11 995.2
20260506071803 38 259 3.0 7.0 0.00 0.00 0.00 11 995.1
20260506071746 38 268 2.0 6.0 0.00 0.00 0.00 11 995.2
20260506071246 38 306 2.0 7.0 0.00 0.00 0.00 11 995.2
20260506070903 38 308 2.0 7.0 0.00 0.00 0.00 11 995.0
20260506070722 37 311 3.0 7.0 0.00 0.00 0.00 11 995.0
20260506062246 36 265 3.0 7.0 0.00 0.00 0.00 11 994.7
20260506061803 36 244 1.0 5.0 0.00 0.00 0.00 11 994.8
20260506061747 36 238 2.0 5.0 0.00 0.00 0.00 11 994.8
20260506061248 35 230 2.0 5.0 0.00 0.00 0.00 11 994.8
20260506060903 35 227 2.0 4.0 0.00 0.00 0.00 11 994.9
20260506060721 35 227 1.0 5.0 0.00 0.00 0.00 11 994.8
20260506050903 33 195 3.0 6.0 0.00 0.00 0.00 11 994.2
20260506050721 33 199 1.0 4.0 0.00 0.00 0.00 11 994.2
20260506050245 33 198 2.0 5.0 0.00 0.00 0.00 11 994.2
20260506044723 33 219 2.0 4.0 0.00 0.00 0.00 11 994.1
20260506044503 33 226 2.0 4.0 0.00 0.00 0.00 11 994.0
20260506044246 33 235 2.0 5.0 0.00 0.00 0.00 11 993.9
20260506043747 33 237 2.0 5.0 0.00 0.00 0.00 11 994.0
20260506043603 33 235 2.0 5.0 0.00 0.00 0.00 11 993.9
20260506042722 33 247 2.0 4.0 0.00 0.00 0.00 11 994.0
20260506042703 33 247 2.0 4.0 0.00 0.00 0.00 11 994.0
20260506041803 32 224 1.0 5.0 0.00 0.00 0.00 11 993.9
20260506041248 32 217 2.0 4.0 0.00 0.00 0.00 11 993.8
20260506040903 32 223 2.0 4.0 0.00 0.00 0.00 11 993.9
20260506040722 32 223 2.0 5.0 0.00 0.00 0.00 11 993.8
20260506040248 32 228 2.0 5.0 0.00 0.00 0.00 11 993.8
20260506040003 32 227 2.0 5.0 0.00 0.00 0.00 11 993.7
20260506035748 32 222 3.0 6.0 0.00 0.00 0.00 11 993.9
20260506035403 32 219 1.0 6.0 0.00 0.00 0.00 11 993.8
20260506035245 32 213 2.0 6.0 0.00 0.00 0.00 11 993.7
20260506034721 32 208 2.0 6.0 0.00 0.00 0.00 11 993.7
20260506034503 32 204 2.0 6.0 0.00 0.00 0.00 11 993.5
20260506034248 31 204 3.0 6.0 0.00 0.00 0.00 11 993.6
20260506033749 31 212 2.0 5.0 0.00 0.00 0.00 11 993.6
20260506033603 31 216 3.0 5.0 0.00 0.00 0.00 11 993.6
20260506032721 31 212 2.0 4.0 0.00 0.00 0.00 11 993.5
20260506032703 31 212 2.0 4.0 0.00 0.00 0.00 11 993.5
20260506032246 31 209 2.0 4.0 0.00 0.00 0.00 11 993.4
20260506031803 30 217 1.0 4.0 0.00 0.00 0.00 11 993.5
20260506031748 30 222 2.0 4.0 0.00 0.00 0.00 11 993.4
20260506031245 30 222 1.0 4.0 0.00 0.00 0.00 11 993.5
20260506030903 30 225 0.0 2.0 0.00 0.00 0.00 11 993.3
20260506030722 30 225 1.0 2.0 0.00 0.00 0.00 11 993.4
20260506030249 30 206 1.0 4.0 0.00 0.00 0.00 11 993.5
20260506030003 30 201 1.0 4.0 0.00 0.00 0.00 11 993.4
20260506025745 29 190 2.0 4.0 0.00 0.00 0.00 11 993.3
20260506025403 29 188 2.0 4.0 0.00 0.00 0.00 11 993.4
20260506025245 29 189 2.0 4.0 0.00 0.00 0.00 11 993.4
20260506024503 29 180 0.0 1.0 0.00 0.00 0.00 11 993.3
20260506024245 29 180 0.0 2.0 0.00 0.00 0.00 11 993.3
20260506023603 29 180 0.0 2.0 0.00 0.00 0.00 11 993.3
20260506023244 28 180 1.0 2.0 0.00 0.00 0.00 11 993.2
20260506022703 28 180 1.0 2.0 0.00 0.00 0.00 11 993.2
20260506021803 28 180 0.0 3.0 0.00 0.00 0.00 11 993.2
20260506021249 28 180 2.0 3.0 0.00 0.00 0.00 11 993.1
20260506020903 28 180 1.0 2.0 0.00 0.00 0.00 11 993.0
20260506020721 28 0 0.0 0.0 0.00 0.00 0.00 11 993.2
20260506020003 28 180 0.0 1.0 0.00 0.00 0.00 11 993.2
20260506015403 28 180 0.0 2.0 0.00 0.00 0.00 11 993.2
20260506014720 28 180 1.0 3.0 0.00 0.00 0.00 11 993.2
20260506014503 28 180 1.0 3.0 0.00 0.00 0.00 11 993.1
20260506013603 28 180 1.0 2.0 0.00 0.00 0.00 11 993.1
20260506012722 29 180 1.0 3.0 0.00 0.00 0.00 11 993.0
20260506012703 29 180 1.0 3.0 0.00 0.00 0.00 11 993.0
20260506012246 29 178 1.0 4.0 0.00 0.00 0.00 11 992.9
20260506011803 29 167 2.0 4.0 0.00 0.00 0.00 11 992.9
20260506011746 29 164 2.0 4.0 0.00 0.00 0.00 11 992.8
20260506011246 29 135 0.0 2.0 0.00 0.00 0.00 11 993.0
20260506010903 29 135 0.0 2.0 0.00 0.00 0.00 11 992.9
20260506010722 29 0 0.0 0.0 0.00 0.00 0.00 11 992.9
20260506010003 29 135 0.0 2.0 0.00 0.00 0.00 11 992.9
20260506005403 29 136 0.0 2.0 0.00 0.00 0.00 11 992.9
20260506005246 29 140 0.0 2.0 0.00 0.00 0.00 11 992.8
20260506004504 29 168 1.0 2.0 0.00 0.00 0.00 11 992.8
20260506003746 29 180 0.0 1.0 0.00 0.00 0.00 11 992.7
20260506003603 29 180 0.0 1.0 0.00 0.00 0.00 11 992.8
20260506003245 29 180 0.0 1.0 0.00 0.00 0.00 11 992.8
20260506002722 29 200 0.0 3.0 0.00 0.00 0.00 11 992.8
20260506002704 29 200 0.0 3.0 0.00 0.00 0.00 11 992.8
20260506001803 29 211 1.0 4.0 0.00 0.00 0.00 11 992.9
20260506001247 29 211 0.0 3.0 0.00 0.00 0.00 11 992.8
20260506000903 29 217 0.0 3.0 0.00 0.00 0.00 11 992.7
20260506000722 28 225 1.0 2.0 0.00 0.00 0.00 11 992.7
20260506000247 28 210 1.0 2.0 0.00 0.00 0.00 11 992.8
20260506000003 28 202 1.0 3.0 0.00 0.00 0.00 11 992.7
20260505235403 28 189 1.0 3.0 0.00 0.00 0.00 11 992.7
20260505235247 28 198 0.0 3.0 0.00 0.00 0.00 11 992.7
20260505234724 28 216 0.0 2.0 0.00 0.00 0.00 11 992.8
20260505234503 28 223 0.0 2.0 0.00 0.00 0.00 11 992.8
20260505234245 28 225 1.0 2.0 0.00 0.00 0.00 11 992.8
20260505233603 28 238 0.0 3.0 0.00 0.00 0.00 11 992.9
20260505232721 29 224 1.0 4.0 0.00 0.00 0.00 11 992.9
20260505232703 29 224 1.0 4.0 0.00 0.00 0.00 11 992.9
20260505231803 29 212 2.0 5.0 0.00 0.00 0.00 11 992.8
20260505231744 29 210 2.0 5.0 0.00 0.00 0.00 11 992.9
20260505231246 29 216 2.0 5.0 0.00 0.00 0.00 11 992.8
20260505230903 29 217 2.0 5.0 0.00 0.00 0.00 11 992.9
20260505230248 29 207 2.0 5.0 0.00 0.00 0.00 11 992.8
20260505230003 29 198 2.0 5.0 0.00 0.00 0.00 11 992.7
20260505225745 29 204 2.0 5.0 0.00 0.00 0.00 11 992.9
20260505225403 29 195 2.0 5.0 0.00 0.00 0.00 11 992.9
20260505225245 29 202 2.0 4.0 0.00 0.00 0.00 11 992.9
20260505224503 29 215 1.0 3.0 0.00 0.00 0.00 11 992.9
20260505224244 29 214 1.0 3.0 0.00 0.00 0.00 11 992.8
20260505223744 29 210 1.0 3.0 0.00 0.00 0.00 11 992.9
20260505223603 29 215 2.0 3.0 0.00 0.00 0.00 11 993.0
20260505223244 29 217 1.0 3.0 0.00 0.00 0.00 11 992.9
20260505222723 29 234 1.0 3.0 0.00 0.00 0.00 11 993.1
20260505222703 29 234 1.0 3.0 0.00 0.00 0.00 11 993.1
20260505221803 29 238 0.0 3.0 0.00 0.00 0.00 11 993.1
20260505221746 29 235 0.0 3.0 0.00 0.00 0.00 11 993.0
20260505220903 29 217 0.0 3.0 0.00 0.00 0.00 11 992.9
20260505220003 30 210 1.0 4.0 0.00 0.00 0.00 11 993.0
20260505215403 30 225 2.0 4.0 0.00 0.00 0.00 11 992.9
20260505214723 30 223 2.0 4.0 0.00 0.00 0.00 11 992.9
20260505214503 30 227 1.0 4.0 0.00 0.00 0.00 11 992.9
20260505214247 30 222 2.0 5.0 0.00 0.00 0.00 11 993.1
20260505213603 30 217 2.0 5.0 0.00 0.00 0.00 11 992.8
20260505213245 30 213 2.0 4.0 0.00 0.00 0.00 11 993.1
20260505212703 30 218 2.0 6.0 0.00 0.00 0.00 11 992.9
20260505211803 31 215 2.0 7.0 0.00 0.00 0.00 11 992.8
20260505211245 31 208 2.0 7.0 0.00 0.00 0.00 11 992.8
20260505210903 32 201 4.0 7.0 0.00 0.00 0.00 11 992.8
20260505210722 32 198 2.0 5.0 0.00 0.00 0.00 11 992.8
20260505210248 32 215 2.0 5.0 0.00 0.00 0.00 11 992.7
20260505210003 32 221 2.0 5.0 0.00 0.00 0.00 11 992.7
20260505205403 32 233 2.0 5.0 0.00 0.00 0.00 11 992.7
20260505205245 32 222 2.0 5.0 0.00 0.00 0.00 11 992.7
20260505204606 32 229 1.0 6.0 0.00 0.00 0.00 11 992.6
20260505204503 32 231 2.0 6.0 0.00 0.00 0.00 11 992.6
20260505203606 33 247 2.0 5.0 0.00 0.00 0.00 11 992.6
20260505203603 33 251 2.0 5.0 0.00 0.00 0.00 11 992.6
20260505202703 33 222 2.0 8.0 0.00 0.00 0.00 11 992.6
20260505202606 33 226 2.0 8.0 0.00 0.00 0.00 11 992.5
20260505201803 33 242 2.0 8.0 0.00 0.00 0.00 11 992.5
20260505200903 34 258 1.0 4.0 0.00 0.00 0.00 11 992.4
20260505200716 34 255 2.0 4.0 0.00 0.00 0.00 11 992.4
20260505200606 34 256 1.0 4.0 0.00 0.00 0.00 11 992.6
20260505200003 34 229 1.0 4.0 0.00 0.00 0.00 11 992.5
20260505195606 34 235 1.0 6.0 0.00 0.00 0.00 11 992.4
20260505195403 34 239 0.0 8.0 0.00 0.00 0.00 11 992.4
20260505195106 35 243 1.0 8.0 0.00 0.00 0.00 11 992.3
20260505194606 35 241 2.0 8.0 0.00 0.00 0.00 11 992.3
20260505194503 35 243 2.0 8.0 0.00 0.00 0.00 11 992.4
20260505194112 35 244 3.0 8.0 0.00 0.00 0.00 11 992.2
20260505193609 35 236 2.0 5.0 0.00 0.00 0.00 11 992.3
20260505193603 35 240 3.0 7.0 0.00 0.00 0.00 11 992.3
20260505193106 35 251 2.0 4.0 0.00 0.00 0.00 11 992.3
20260505192712 36 289 2.0 8.0 0.00 0.00 0.00 11 992.3
20260505192703 36 289 2.0 8.0 0.00 0.00 0.00 11 992.3
20260505192612 36 298 1.0 8.0 0.00 0.00 0.00 11 992.2
20260505192110 36 273 2.0 8.0 0.00 0.00 0.00 11 992.3
20260505191803 36 269 4.0 8.0 0.00 0.00 0.00 11 992.3
20260505191108 36 283 1.0 8.0 0.00 0.00 0.00 11 992.3
20260505190903 36 283 2.0 8.0 0.00 0.00 0.00 11 992.2
20260505190714 36 297 3.0 7.0 0.00 0.00 0.00 11 992.2
20260505190609 36 293 5.0 7.0 0.00 0.00 0.00 11 992.2
20260505190004 36 317 2.0 10.0 0.00 0.00 0.00 11 992.1
20260505185403 36 311 4.0 10.0 0.00 0.00 0.00 11 992.1
20260505185107 36 307 3.0 8.0 0.00 0.00 0.00 11 992.2
20260505184503 36 319 4.0 9.0 0.00 0.00 0.00 11 992.1
20260505183608 37 335 4.0 8.0 0.00 0.00 0.00 11 991.9
20260505183603 37 335 4.0 8.0 0.00 0.00 0.00 11 991.9
20260505182713 37 329 2.0 9.0 0.00 0.00 0.00 11 991.9
20260505182704 37 329 2.0 10.0 0.00 0.00 0.00 11 991.9
20260505181803 38 305 2.0 10.0 0.00 0.00 0.00 11 991.9
20260505181607 38 305 4.0 10.0 0.00 0.00 0.00 11 991.9
20260505181107 40 327 4.0 10.0 0.00 0.00 0.00 11 991.8
20260505180903 40 338 4.0 10.0 0.00 0.00 0.00 11 992.0
20260505180109 40 326 5.0 14.0 0.00 0.00 0.00 11 991.8
20260505180004 40 327 5.0 14.0 0.00 0.00 0.00 11 991.9
20260505175607 40 336 7.0 14.0 0.00 0.00 0.00 11 991.8
20260505175403 40 336 7.0 13.0 0.00 0.00 0.00 11 991.7
20260505175110 40 341 5.0 13.0 0.00 0.00 0.00 11 991.8
20260505174713 39 326 5.0 15.0 0.00 0.00 0.00 11 991.6
20260505174609 39 325 4.0 15.0 0.00 0.00 0.00 11 991.7
20260505174503 39 331 5.0 15.0 0.00 0.00 0.00 11 991.8
20260505174107 39 331 5.0 15.0 0.00 0.00 0.00 11 991.7
20260505173607 39 339 4.0 13.0 0.00 0.00 0.00 11 991.7
20260505173603 39 339 4.0 13.0 0.00 0.00 0.00 11 991.7
20260505173107 39 348 3.0 13.0 0.00 0.00 0.00 11 991.8
20260505172712 40 355 4.0 19.0 0.00 0.00 0.00 11 991.7
20260505172703 40 355 4.0 19.0 0.00 0.00 0.00 11 991.7
20260505172608 40 355 7.0 19.0 0.00 0.00 0.00 11 991.6
20260505171803 38 330 7.0 19.0 0.00 0.00 0.00 11 991.7
20260505171612 39 318 5.0 17.0 0.00 0.00 0.00 11 991.5
20260505171108 40 296 5.0 17.0 0.00 0.00 0.00 11 991.5
20260505170903 41 290 5.0 17.0 0.00 0.00 0.00 11 991.7
20260505170712 41 292 11.0 17.0 0.00 0.00 0.00 11 991.4
20260505170613 42 287 8.0 17.0 0.00 0.00 0.00 11 991.6